Location: Baptist Memorial Hospital
(34.4976°N, 89.0284°W)
Time: 09:40:52
(UTC+00:00)

CZ-4B R/B - Pass Details

Date: 29 October 2020
Orbit: 808 x 882 km, 99.1° (Epoch: 03 December)

Event Time Altitude Azimuth Distance (km) Brightness Sun altitude
Rises 23:25:11 0° 167° (SSE) 3,456 6.4 -4.9°
Reaches altitude 10° 23:27:34 10° 167° (SSE) 2,516 5.7 -5.3°
Maximum altitude 23:33:11 84° 256° (WSW) 873 3.4 -6.5°
Drops below altitude 10° 23:38:44 10° 345° (NNW) 2,488 5.7 -7.6°
Sets 23:41:06 0° 346° (NNW) 3,417 6.4 -8.1°
